Wind_Speed
49 47 46 47 47 47 46 47 47 43 41 41 40 38 37 37 38 38 38 36 36 35 33 30 29 28 27 26 25 22 20 18 17 14 13 14 12 13 13 14 16 14 9 8 7 8 9 8 9 9 12 14 14 12 12 15 19 20 19 18 18 18 17 16 15 15 15 14 15 16 17 18 19 19 20 20 20 20 20 20 20 20 20 20 20 20
48 48 49 50 49 49 48 48 47 44 42 42 41 40 39 38 39 40 40 40 39 38 35 33 32 30 30 29 26 24 22 20 18 15 13 13 13 13 13 14 15 14 11 9 9 9 9 9 9 10 12 13 14 12 12 15 19 20 19 19 19 18 18 17 16 15 15 15 15 16 16 17 17 17 18 18 18 18 18 18 18 17 17 17 17 18
49 51 53 52 51 50 50 49 48 46 44 44 43 42 41 41 41 42 42 42 41 40 39 36 34 33 32 30 28 26 23 21 20 18 15 14 14 13 14 15 15 14 12 10 10 10 10 10 11 11 12 13 14 13 13 16 19 21 21 20 19 19 19 17 16 15 15 15 15 15 15 15 15 16 16 16 16 16 16 15 15 15 15 15 15 15
53 56 57 53 52 51 50 50 49 48 46 45 46 44 44 44 44 45 45 45 44 43 42 40 38 37 35 32 30 28 25 23 22 20 18 15 15 14 14 15 13 13 14 14 13 12 12 12 11 12 13 14 14 14 14 17 20 22 22 21 20 20 19 18 17 16 16 16 16 16 15 15 14 14 14 14 14 14 14 13 13 12 13 13 13 13
57 60 57 53 52 51 50 50 50 49 48 48 48 47 47 47 46 48 49 48 48 47 45 44 43 41 37 35 33 30 27 26 25 21 19 17 16 14 14 14 13 14 16 17 15 14 14 13 13 13 14 15 16 16 15 18 21 22 22 22 21 20 19 19 18 17 17 17 16 15 15 14 13 13 13 13 13 13 12 11 11 10 11 11 11 11
60 60 56 54 53 52 51 51 51 51 50 50 49 49 50 49 49 50 51 51 51 49 47 47 47 45 41 39 36 33 30 29 26 22 20 19 16 15 14 13 14 16 17 16 16 16 16 16 16 15 15 16 17 17 16 19 22 22 23 23 22 21 20 20 19 18 18 18 17 16 15 15 13 12 12 12 12 11 11 10 9 9 9 9 9 10
60 59 56 55 54 53 52 51 52 53 52 51 50 52 52 50 50 51 52 53 52 50 49 48 49 48 44 41 38 35 33 32 28 24 22 20 17 17 16 14 15 17 17 17 17 17 17 18 18 16 16 16 18 18 17 20 24 24 24 24 23 22 21 20 20 19 18 18 17 16 15 15 14 13 12 12 12 11 10 9 8 8 7 8 8 8
59 59 56 55 55 53 52 51 53 53 51 51 52 54 52 50 51 51 52 53 51 51 50 50 50 48 44 42 41 38 36 34 30 27 25 22 19 18 17 16 17 18 17 18 19 18 18 18 19 18 17 17 19 20 19 22 25 27 26 25 23 22 22 21 21 20 19 18 18 17 16 15 15 14 13 12 12 11 10 9 8 7 7 7 7 7
61 61 58 57 56 54 52 53 54 53 51 52 54 53 51 50 50 50 51 52 51 51 51 50 49 46 44 44 43 41 38 35 32 29 27 25 21 20 19 18 18 18 18 18 19 18 18 19 20 19 18 18 19 21 21 23 26 28 28 26 25 23 23 23 22 21 20 19 19 18 17 16 15 14 13 12 12 11 10 9 8 8 7 7 7 6
64 62 60 59 56 54 54 55 54 52 52 53 54 51 50 49 49 49 50 51 51 51 50 49 47 45 46 46 46 44 40 37 35 33 30 27 24 22 21 20 20 19 18 18 19 19 19 19 20 20 18 19 20 22 23 24 27 29 30 28 27 25 24 24 23 22 22 21 20 19 18 16 15 14 13 13 12 11 11 10 9 9 8 8 7 7
65 64 61 58 55 54 54 54 52 50 52 53 51 49 49 48 48 49 48 50 51 48 47 47 47 47 47 47 48 47 43 41 39 36 32 30 27 24 22 22 21 19 19 19 18 18 18 19 20 20 19 21 23 23 25 27 30 32 32 30 28 27 26 25 24 24 23 21 20 19 18 17 15 14 13 12 12 11 11 11 10 10 9 8 8 7
66 64 60 56 55 55 54 52 49 50 51 51 48 49 49 48 48 48 48 49 47 43 43 45 49 48 45 48 53 50 47 45 41 38 34 32 30 26 24 23 21 20 20 19 18 18 18 20 21 21 21 21 22 23 26 29 32 34 33 32 30 29 28 27 26 25 23 22 21 19 18 16 14 13 13 12 12 11 11 11 10 10 9 8 7 6
66 62 59 58 57 56 54 51 50 50 51 50 49 50 50 48 49 49 48 48 45 44 45 48 53 51 47 53 57 52 49 47 42 39 36 34 32 28 26 24 22 21 21 20 19 19 20 22 22 23 23 22 21 22 26 30 33 35 35 33 32 30 29 28 26 25 23 21 20 19 17 16 14 14 13 12 11 11 10 9 9 9 9 8 7 6
68 66 63 60 58 58 55 51 51 53 53 52 51 51 50 49 49 48 47 47 47 49 51 54 55 52 51 57 57 52 51 48 43 41 38 36 34 31 28 26 23 23 22 21 21 21 22 23 23 23 24 23 22 23 26 30 34 36 36 35 33 31 29 28 26 24 22 21 20 19 18 17 15 14 13 12 11 10 9 9 8 8 7 6 6 5
72 70 64 59 59 59 56 53 54 56 56 53 52 52 50 50 49 48 47 48 49 51 54 54 52 49 52 56 55 51 50 48 45 43 39 37 35 32 29 28 26 24 23 22 22 22 23 23 23 24 24 23 23 24 26 31 35 37 37 36 33 32 30 28 27 25 23 22 20 20 19 17 16 15 13 13 11 10 9 9 8 7 6 6 5 4
73 69 65 64 64 63 59 57 58 58 56 53 53 52 49 49 50 49 48 49 50 51 52 50 47 49 51 52 51 50 48 48 47 45 41 37 36 33 31 30 29 27 25 24 23 23 23 24 25 25 24 24 25 25 26 31 36 39 39 37 35 33 32 30 29 27 25 23 22 21 19 18 18 16 15 14 12 11 11 10 8 7 6 5 5 5
72 68 68 69 67 65 63 61 61 59 57 56 54 51 50 52 51 49 48 49 49 48 47 46 46 48 47 46 48 47 47 48 48 48 44 39 37 35 33 33 32 29 27 26 25 25 23 23 25 25 24 25 28 28 27 31 37 40 41 39 37 35 34 33 32 30 28 26 24 22 21 20 19 18 16 15 14 13 12 10 9 8 7 7 7 8
73 69 70 70 66 65 64 65 64 61 59 57 54 53 54 54 50 46 46 47 46 44 45 46 46 46 45 44 46 46 46 47 48 48 45 40 39 38 37 37 36 32 29 28 27 25 23 23 25 25 25 27 31 31 28 30 37 40 41 40 39 37 37 36 34 31 29 27 25 23 22 21 19 18 17 16 16 15 13 12 11 10 10 10 10 10
76 73 73 71 68 66 67 68 65 60 58 55 54 56 55 52 47 44 44 44 43 43 44 44 45 45 44 45 47 46 45 46 48 48 45 43 44 44 42 40 39 36 31 29 29 27 24 25 25 25 25 28 32 31 28 30 37 41 42 41 40 39 38 36 34 31 29 28 26 25 24 23 21 20 19 18 18 17 16 15 14 14 14 13 13 13
78 77 75 72 69 69 69 68 62 56 55 55 54 56 52 47 46 44 42 43 43 44 44 43 44 45 45 46 48 46 45 46 48 48 47 47 48 47 45 43 42 39 34 32 32 30 27 26 26 25 25 26 30 31 28 30 38 42 42 42 42 40 38 36 35 33 32 31 30 29 27 25 23 22 21 21 20 20 19 18 18 18 17 16 16 15
81 79 76 74 73 72 68 63 57 54 55 55 54 54 49 46 46 42 40 41 43 43 42 43 45 46 46 46 46 44 43 45 47 47 48 49 50 49 47 44 43 41 38 35 34 33 29 26 26 25 24 26 29 30 28 31 38 42 42 42 42 41 39 37 37 36 35 34 33 31 28 27 25 24 23 23 23 23 22 21 21 20 19 19 18 18
82 80 78 77 76 70 62 59 58 56 56 57 56 55 52 49 48 42 38 39 41 41 42 44 45 45 43 41 41 41 43 45 47 47 49 51 52 51 48 47 45 43 41 38 35 34 31 28 27 25 23 26 29 30 30 33 38 42 41 40 41 41 40 38 38 38 37 37 35 32 30 29 28 27 26 25 25 24 23 22 22 22 22 22 21 20
83 80 79 79 76 68 62 62 64 61 60 61 60 57 55 53 50 44 39 40 42 42 44 45 46 43 38 37 41 42 43 45 47 48 50 53 54 52 51 49 47 45 44 40 36 35 32 30 28 25 23 26 29 30 32 34 38 41 40 39 40 42 41 39 38 38 38 38 36 34 32 31 30 29 28 27 26 24 23 23 24 25 25 24 23 22
90 86 82 80 76 71 68 68 68 66 64 62 60 57 55 53 51 47 43 43 44 45 46 46 46 42 36 37 41 41 41 44 46 49 51 53 55 54 53 52 50 48 46 42 38 36 34 32 29 26 25 27 30 31 33 35 38 40 40 41 41 42 42 41 39 38 38 38 37 35 33 32 31 30 29 28 26 24 23 24 25 26 26 25 25 24
94 89 83 81 79 76 73 71 70 67 63 60 59 57 54 54 54 49 46 45 46 47 48 48 48 44 38 38 37 36 40 43 45 48 50 52 55 55 54 53 51 49 47 43 41 40 38 36 33 30 28 29 32 33 34 37 40 41 42 43 44 43 43 43 41 39 38 38 37 36 35 34 32 31 30 29 27 26 26 26 26 27 27 27 26 25
90 86 82 81 81 78 73 69 68 66 61 59 59 58 56 56 55 51 47 46 46 49 49 49 51 45 40 39 35 32 37 41 44 48 50 51 53 55 54 53 52 51 49 46 45 44 42 39 37 35 32 31 33 35 36 39 42 43 43 44 45 44 44 44 43 40 39 38 38 37 36 35 34 33 31 30 29 29 29 29 28 28 28 28 28 27
89 87 83 81 82 80 74 71 71 71 68 64 61 60 59 58 56 53 50 47 48 50 49 51 52 45 41 41 35 31 34 38 42 46 48 49 51 54 55 54 55 56 53 50 47 45 44 42 39 37 34 33 34 37 39 42 44 45 45 45 45 45 45 45 44 42 40 39 39 39 38 37 36 34 33 32 31 32 32 32 31 29 29 30 30 30
90 88 84 82 83 82 78 76 77 76 72 67 65 64 63 62 59 55 52 50 51 52 51 53 53 47 43 41 35 34 36 37 38 41 45 48 49 52 55 57 58 58 55 51 48 46 46 45 42 39 36 34 35 38 42 45 47 48 47 47 46 46 46 46 45 44 42 41 41 41 40 39 37 36 35 34 34 34 34 34 33 32 32 32 32 32
92 89 85 83 84 84 81 78 78 76 73 69 67 65 65 64 61 57 55 54 54 53 54 55 54 50 46 43 40 40 39 38 38 40 43 45 47 51 56 59 59 58 56 53 51 50 48 47 45 42 39 36 35 38 42 45 48 50 49 48 47 46 46 46 46 46 44 43 43 43 42 41 39 39 37 36 36 36 35 34 34 34 34 34 34 34
90 87 85 85 87 88 84 80 78 77 75 72 68 66 66 65 62 61 60 59 57 56 57 56 54 52 49 46 46 45 42 40 39 38 39 42 47 51 55 57 57 57 57 56 54 52 51 49 46 43 42 41 38 37 40 43 47 49 50 49 47 47 46 46 46 46 46 46 45 45 44 42 41 40 39 38 38 37 36 36 36 36 36 36 36 35
86 86 87 88 89 89 86 82 79 77 74 73 71 69 68 67 65 64 64 62 60 60 60 58 56 54 51 49 49 48 45 40 37 35 37 41 45 48 51 53 55 56 58 57 55 54 52 51 49 46 45 45 42 40 40 41 44 46 48 49 49 48 47 46 47 47 47 47 46 45 44 43 43 42 40 40 40 39 39 38 38 38 38 38 37 37
85 88 91 91 90 88 85 83 81 78 77 77 75 71 68 67 66 66 65 64 62 63 64 62 58 55 52 51 51 50 45 40 37 36 37 40 42 44 48 50 53 55 56 57 57 56 55 55 54 51 49 47 45 44 42 41 42 44 46 48 48 47 47 47 48 48 47 47 45 45 45 44 43 43 42 42 41 41 40 40 40 40 40 39 39 39
88 91 92 92 89 86 86 84 82 81 81 78 73 68 65 67 68 69 68 66 65 65 66 65 61 57 55 54 54 53 47 44 43 40 39 39 40 42 45 47 50 53 55 57 58 59 59 58 55 53 51 50 48 46 44 43 43 43 44 45 46 46 47 48 48 47 47 46 45 45 45 44 44 44 43 43 42 41 41 41 41 41 40 39 39 39
90 90 90 89 88 87 88 86 85 85 81 75 72 70 70 71 72 73 71 68 67 67 67 67 64 61 60 58 56 54 50 48 46 43 40 38 38 40 42 43 46 50 53 56 58 59 59 58 56 55 55 53 51 49 47 46 45 44 44 45 45 46 46 47 47 47 47 46 46 46 46 45 45 44 44 43 42 41 41 41 41 40 40 40 40 41
90 89 89 88 88 89 89 89 89 86 78 76 78 78 77 76 75 75 75 73 71 70 70 71 71 67 62 57 54 54 53 51 48 44 41 38 37 39 41 41 43 45 50 55 59 60 60 59 58 57 57 55 53 51 50 49 48 47 46 45 46 46 46 46 46 46 47 46 46 46 46 45 44 44 44 43 43 42 42 42 41 41 41 42 42 42
90 90 89 88 89 91 94 94 91 84 79 81 84 82 80 79 77 76 76 74 74 74 73 74 73 67 59 55 54 54 54 54 52 49 45 41 41 42 41 40 41 43 46 51 54 58 61 60 59 58 57 56 55 54 52 51 50 49 48 47 46 45 45 45 45 46 47 47 47 46 45 45 44 44 43 43 43 43 43 43 42 42 42 42 43 43
92 92 90 90 92 95 97 95 90 85 85 86 85 83 82 80 77 77 77 76 76 75 72 70 68 65 60 59 59 58 59 60 58 53 49 46 45 42 38 37 38 39 39 42 48 55 60 61 60 60 58 57 56 55 54 53 51 51 49 49 48 47 45 45 45 45 46 46 46 45 44 44 43 43 43 43 43 43 43 43 42 42 42 42 44 44
93 93 93 94 95 96 96 94 90 89 89 87 85 86 84 80 79 79 79 78 78 76 71 69 69 68 67 68 67 65 64 62 58 54 52 49 44 39 36 37 38 36 35 40 46 52 55 58 61 61 60 59 58 57 55 54 53 52 51 51 50 49 47 47 47 46 46 45 45 44 43 43 43 43 43 44 44 44 44 43 43 43 43 44 46 47
94 95 95 95 96 95 95 95 93 92 90 88 87 88 85 83 83 81 79 80 81 78 75 74 74 73 72 71 68 63 59 58 58 59 56 49 42 39 39 39 38 36 38 42 44 46 50 54 58 60 60 60 59 59 58 56 55 53 52 52 51 50 50 49 49 48 47 46 46 45 45 45 45 45 45 45 46 46 45 46 46 47 47 47 48 50
95 96 95 95 95 95 95 95 95 94 92 90 90 90 88 87 86 84 82 84 83 80 77 76 75 73 72 69 65 61 59 60 63 62 56 48 42 41 43 40 38 40 42 41 41 43 46 49 52 55 58 59 59 59 59 58 57 55 54 54 53 52 52 51 51 50 49 48 48 48 47 47 47 47 47 47 48 48 48 49 49 50 50 51 51 51
95 96 94 95 95 96 95 96 97 97 95 93 94 94 91 89 89 88 87 86 83 79 77 77 75 72 69 67 65 65 65 65 65 60 54 49 46 45 45 43 41 42 43 42 42 43 43 44 47 50 53 55 57 58 57 57 57 56 56 55 54 54 54 53 52 52 51 51 50 50 49 49 49 49 49 49 50 50 50 50 51 51 51 51 51 50
97 96 95 95 96 96 96 97 99 98 96 95 97 97 93 91 92 92 88 85 82 80 79 79 76 72 69 68 68 68 67 65 63 61 58 56 53 50 47 45 42 42 43 44 44 42 41 42 44 45 47 50 52 53 54 55 55 55 55 55 55 55 54 54 54 53 53 52 52 51 51 50 50 49 49 49 49 49 49 49 49 48 48 48 47 46
98 98 97 96 97 97 98 99 101 100 98 97 97 97 94 93 93 91 87 83 82 81 79 78 76 73 71 70 69 68 66 64 63 63 62 60 58 53 48 46 45 44 44 45 44 43 43 42 42 42 43 45 46 47 48 49 50 50 51 51 51 52 51 51 52 51 51 51 50 49 49 48 48 47 46 46 46 46 46 45 45 44 44 43 42 41
100 99 98 98 99 100 100 101 102 101 98 97 97 96 94 92 92 91 88 83 80 80 79 78 77 75 72 71 70 68 66 64 63 63 63 62 61 57 51 48 48 47 46 45 45 45 45 43 43 43 42 43 43 42 42 42 43 43 43 43 43 43 43 43 44 44 45 44 44 44 44 44 44 43 42 42 42 42 42 42 41 40 40 39 38 37
102 101 100 99 100 101 102 102 103 101 98 95 94 93 92 91 90 91 90 86 82 81 80 79 78 76 74 73 72 69 66 64 64 64 64 64 64 61 55 51 49 49 48 46 46 47 47 45 45 45 44 44 43 41 40 40 40 39 39 39 39 39 39 38 38 39 40 40 40 40 40 40 41 40 40 40 40 40 39 39 38 37 37 36 36 36
104 102 101 101 99 99 100 101 100 99 96 92 90 91 91 90 90 91 91 88 84 82 81 80 78 77 76 75 73 70 68 66 65 66 66 65 64 63 59 54 51 50 50 49 49 49 48 47 46 46 46 45 44 43 42 41 40 39 40 40 40 40 39 38 39 39 39 39 39 38 38 39 40 39 38 38 39 39 39 38 37 37 37 37 37 37
106 103 102 102 100 100 101 102 101 100 97 92 90 92 91 89 89 90 91 90 86 83 81 80 79 78 77 76 74 73 71 68 67 67 66 66 65 64 63 59 54 52 52 52 52 51 49 48 47 47 46 46 45 44 43 41 41 41 41 41 40 40 40 40 40 40 40 39 39 38 38 39 40 39 39 40 40 40 40 39 39 39 40 40 40 41
108 103 101 101 100 100 102 102 101 99 96 92 90 91 90 87 86 89 91 91 88 85 83 82 81 81 79 77 75 74 72 70 69 67 67 67 67 66 65 63 59 55 54 54 55 54 52 50 49 49 48 47 47 45 44 43 42 42 42 42 42 41 41 41 41 41 40 40 40 40 40 40 41 41 41 42 42 41 41 41 42 42 42 43 44 44
109 104 101 100 99 99 100 100 99 97 94 92 91 91 89 86 86 89 91 92 90 88 86 84 83 83 80 77 75 74 73 72 70 69 68 67 68 68 67 65 62 59 57 56 57 56 55 53 52 51 50 49 48 47 45 45 44 44 44 44 44 43 43 43 43 43 42 42 41 42 43 43 44 44 44 45 44 43 43 44 45 45 46 47 47 47
109 105 102 100 98 98 99 99 98 96 93 92 92 91 89 87 87 90 92 92 92 90 88 86 85 84 82 79 76 75 74 73 72 71 69 68 69 69 69 67 65 62 60 59 59 59 58 56 55 54 53 52 50 49 48 47 47 47 46 46 46 46 46 46 46 46 46 46 45 46 46 47 47 48 48 48 47 46 47 48 49 49 49 50 50 51
109 106 102 99 98 97 97 97 96 93 91 91 90 88 85 85 86 88 89 90 91 91 89 88 87 86 84 82 79 77 75 74 74 73 71 70 70 70 70 69 67 65 64 63 62 61 60 59 58 57 57 55 53 52 51 50 50 50 49 49 49 49 49 49 49 48 49 50 50 50 50 50 50 51 52 51 50 50 51 53 53 52 52 53 54 54
Wind_Direction
245 247 246 244 243 244 245 246 247 247 247 248 248 247 245 243 243 244 243 242 242 244 245 247 248 247 248 250 251 252 253 250 248 248 253 258 252 245 254 261 265 270 264 252 244 241 237 220 214 208 196 195 194 190 196 194 186 184 187 184 180 176 174 172 166 162 162 162 161 157 153 150 146 143 140 138 135 132 130 128 125 122 119 116 113 110
246 246 245 243 244 245 246 247 248 248 247 248 247 246 245 244 244 245 245 244 243 244 245 245 246 247 247 248 249 250 252 251 249 249 250 253 252 246 247 254 257 256 249 242 237 239 238 224 216 211 199 198 199 194 195 196 187 183 186 186 183 179 177 175 170 165 165 165 162 160 157 152 149 146 143 140 137 134 132 129 126 123 120 117 114 111
245 244 243 243 244 245 247 248 248 248 246 246 246 245 245 244 244 244 245 245 244 244 245 245 244 246 246 246 247 247 250 252 249 251 250 248 249 249 249 252 250 246 243 237 232 232 234 228 220 214 202 198 203 197 193 196 188 184 187 187 186 184 180 177 172 167 168 168 167 164 162 157 153 150 146 143 140 136 132 128 125 122 120 117 113 110
243 243 243 244 245 246 247 247 248 248 247 246 246 245 243 242 243 244 243 244 243 242 243 244 243 243 244 245 245 244 245 247 246 247 249 246 247 249 251 254 250 246 241 233 229 229 231 231 223 216 207 202 206 200 191 193 191 187 188 189 188 188 183 178 175 172 171 173 172 169 166 161 156 153 151 148 144 139 134 130 127 124 120 115 112 108
243 244 245 245 245 246 246 247 247 247 246 245 245 244 243 242 242 243 244 243 243 242 241 242 242 241 241 241 241 240 241 243 243 244 246 245 245 247 250 252 246 242 238 231 229 230 231 230 223 217 214 209 208 204 193 191 193 191 188 191 192 189 185 182 180 177 175 177 177 173 169 166 163 160 158 154 150 144 139 135 130 126 121 116 111 106
243 244 245 245 244 244 244 244 245 245 245 244 244 243 243 242 241 243 245 244 244 244 243 242 242 241 240 240 240 238 238 240 240 241 244 244 243 244 247 247 241 240 239 233 231 232 229 226 222 219 218 217 212 207 198 191 192 192 190 193 195 191 188 185 183 181 180 181 181 178 174 172 169 168 165 162 157 152 146 141 137 131 124 119 114 109
244 245 245 243 243 242 242 243 244 244 244 244 244 243 243 242 242 242 244 245 245 245 245 244 244 243 242 241 241 238 237 238 238 237 240 240 238 241 243 244 244 243 240 234 231 232 231 227 225 222 220 223 222 212 201 194 191 190 192 196 196 194 191 188 186 185 183 183 185 184 180 177 175 173 170 167 164 161 155 150 145 140 132 126 120 116
244 244 242 241 241 240 240 241 242 242 242 243 243 243 243 243 243 243 244 246 245 245 245 244 245 245 245 244 243 240 238 237 236 234 236 236 234 236 237 239 246 248 242 235 231 231 233 232 229 224 217 221 228 221 206 198 193 190 193 197 197 196 193 190 189 188 186 185 187 188 186 183 180 178 175 173 171 168 165 161 156 151 143 136 129 123
240 241 240 239 239 238 238 238 239 240 241 242 242 243 244 244 244 244 245 246 246 245 245 245 245 246 245 244 243 241 238 237 236 233 234 234 232 233 234 235 240 246 245 239 231 228 229 233 233 228 219 219 228 227 214 201 195 192 194 196 197 197 195 192 192 190 188 186 188 190 191 189 186 183 181 178 178 175 173 170 165 160 152 144 136 130
240 241 240 239 239 238 238 238 239 241 242 242 243 244 245 245 245 244 245 246 246 246 246 246 244 242 242 242 241 241 239 236 234 231 230 231 229 230 234 236 235 238 242 240 231 225 224 229 234 232 224 218 222 230 223 205 196 194 194 195 197 198 197 195 194 192 190 188 188 190 192 192 190 187 185 183 181 179 176 172 167 162 155 149 143 137
241 241 241 240 240 239 239 239 240 241 242 243 244 245 245 245 245 245 245 245 246 246 246 244 241 238 238 240 240 239 237 235 232 229 227 228 228 226 229 236 237 236 239 239 230 224 224 228 233 234 228 217 213 225 228 212 200 196 196 196 196 197 197 197 196 195 193 190 189 190 192 192 191 188 186 184 182 179 175 173 167 164 160 155 151 146
243 242 242 241 240 240 240 240 240 241 243 244 243 244 244 243 243 244 243 243 244 243 241 239 237 235 233 237 237 235 235 233 232 229 225 225 227 224 224 230 235 238 240 242 239 231 227 228 232 234 232 223 215 225 234 222 206 198 196 196 196 196 197 198 199 197 195 192 190 190 190 190 189 186 185 184 182 179 176 173 168 164 161 158 154 151
245 244 242 240 240 240 239 239 239 241 242 242 242 242 242 241 241 241 241 241 239 235 233 232 233 230 226 231 233 231 232 232 230 229 225 223 224 223 222 224 227 234 238 243 246 241 232 228 230 231 231 230 228 235 241 230 212 201 197 197 198 198 198 199 200 199 197 194 191 188 188 188 187 187 186 184 183 181 178 175 170 165 160 156 152 148
239 239 238 237 238 239 238 237 239 240 240 239 239 240 240 239 239 239 239 238 236 235 234 234 236 233 228 232 234 230 231 232 229 228 224 222 222 222 223 224 224 229 234 239 244 243 239 233 228 229 230 230 232 237 241 232 215 203 198 197 199 199 199 200 200 200 198 196 192 189 188 188 189 190 188 188 188 186 185 182 179 174 167 161 158 154
237 238 237 236 237 238 237 236 237 238 238 238 238 238 238 238 238 238 237 237 236 236 238 239 240 238 234 236 238 234 231 232 230 228 224 221 222 222 224 226 224 226 232 236 240 243 243 238 231 228 229 232 234 236 238 231 216 204 199 198 199 200 200 200 200 199 199 198 195 193 191 190 191 193 193 195 197 196 198 199 197 195 190 184 183 185
239 239 238 236 234 234 233 232 234 236 237 237 237 237 238 238 237 235 235 236 236 237 239 241 241 239 237 238 240 237 232 230 230 228 223 219 220 222 225 228 225 226 229 232 236 239 241 242 237 229 227 233 238 236 235 230 217 204 199 198 199 199 199 199 200 200 200 200 199 198 196 195 196 197 199 201 204 206 211 215 215 217 220 221 226 233
238 238 237 236 235 234 233 232 231 232 234 234 235 235 235 236 235 234 235 236 237 238 240 240 238 238 239 238 239 238 232 228 228 228 224 217 217 220 224 229 228 226 227 227 231 234 236 242 242 235 229 232 239 237 232 230 220 207 200 199 199 200 200 200 201 201 201 202 202 201 202 203 204 204 206 208 211 214 220 225 230 235 241 247 251 253
234 233 234 235 234 233 233 233 231 230 232 233 233 233 233 234 233 233 235 238 239 240 239 238 237 237 236 234 234 234 230 226 225 227 225 218 217 220 222 227 228 224 224 225 227 230 231 237 240 237 232 231 236 238 232 229 222 211 203 200 200 201 201 201 202 203 204 205 206 205 208 210 212 213 215 218 221 225 228 232 237 242 245 249 253 257
230 230 231 231 231 230 230 231 231 230 233 234 233 234 234 235 234 233 235 238 239 239 238 238 237 236 234 233 232 230 228 225 222 224 223 217 217 219 219 223 225 222 222 224 224 227 230 232 232 233 230 229 236 238 232 227 222 213 207 203 202 203 203 203 204 205 206 209 210 210 212 215 218 221 224 227 231 235 236 239 241 244 247 249 254 258
229 229 230 229 229 228 228 230 231 230 232 233 234 236 237 236 235 233 235 238 238 238 238 237 237 235 232 230 230 228 225 223 221 222 221 217 218 219 218 220 223 220 221 223 222 225 229 231 232 230 223 224 237 239 230 225 221 214 210 208 205 204 204 204 206 206 208 211 213 213 214 218 222 226 230 233 237 239 240 242 244 245 249 253 257 261
228 228 230 229 229 228 228 230 231 229 229 231 232 235 236 235 235 234 234 238 240 240 239 238 237 235 233 231 232 231 226 223 221 220 220 219 218 219 219 219 222 221 220 222 224 224 225 228 234 232 218 215 229 234 226 221 219 215 213 213 209 206 205 205 206 208 211 214 216 217 218 220 223 225 229 232 235 238 240 242 246 249 251 254 256 260
231 230 230 230 230 230 229 229 229 226 225 227 228 229 230 232 232 231 231 235 238 238 238 237 237 236 234 233 232 229 225 223 221 219 219 219 218 218 219 219 221 222 220 222 225 223 222 227 232 234 223 211 217 225 223 218 217 217 217 217 215 211 208 207 209 210 213 216 218 219 220 221 221 222 225 228 232 235 238 241 244 246 248 250 253 256
230 230 230 230 230 229 227 225 225 223 222 223 224 224 225 227 228 225 225 229 232 233 234 235 235 233 231 230 227 223 221 221 220 219 218 217 217 217 218 218 219 221 220 220 223 223 223 226 230 231 227 217 214 220 220 216 216 217 220 221 219 215 212 211 212 214 215 217 219 220 221 222 221 222 224 228 232 236 239 241 242 244 245 248 250 254
225 225 225 227 229 227 224 223 223 222 220 221 223 224 224 226 227 223 221 224 226 229 231 232 233 230 225 227 226 221 220 220 220 220 219 217 216 216 217 217 217 219 219 218 220 223 223 225 227 228 226 220 216 217 216 215 215 218 220 222 221 219 216 215 216 217 217 219 220 221 222 223 223 225 228 231 235 238 241 244 245 246 248 249 251 253
226 225 223 223 226 226 223 223 224 224 221 220 223 224 224 226 228 224 220 221 225 227 229 231 232 227 222 226 226 221 219 218 220 222 221 218 217 216 216 217 216 218 219 217 219 222 221 222 223 224 221 218 216 214 213 213 214 216 219 221 222 221 219 218 218 219 218 219 221 221 223 224 226 228 231 234 237 240 243 246 249 250 251 252 254 255
229 229 226 224 226 226 225 224 226 228 225 222 223 224 224 226 228 226 220 219 224 229 230 233 234 228 223 227 225 218 218 217 219 222 222 219 217 216 217 217 217 218 218 216 218 220 220 219 221 221 219 217 216 213 211 211 212 215 218 220 222 221 220 220 220 219 219 220 221 223 224 227 229 231 235 238 240 242 244 248 251 253 254 254 256 257
227 228 226 225 226 226 223 221 223 224 223 220 221 223 224 225 226 225 221 216 221 227 230 233 235 230 225 227 223 217 217 216 218 222 222 220 217 216 217 216 216 217 216 215 216 219 221 221 221 222 219 218 218 214 211 210 210 213 217 219 222 222 222 222 222 222 222 222 223 226 228 230 233 236 239 242 244 245 246 249 252 254 255 255 256 257
225 225 224 223 225 226 224 220 220 222 221 218 217 219 222 223 223 222 221 217 218 223 227 231 234 231 228 227 221 217 218 217 220 223 222 220 217 215 217 218 217 217 216 214 215 219 223 222 221 223 222 219 221 219 215 212 210 211 214 217 220 222 223 224 225 225 225 225 227 230 232 234 237 240 241 243 246 247 248 250 253 255 256 257 257 259
222 222 221 220 222 225 225 222 221 222 222 220 218 217 220 222 221 219 219 218 216 219 224 228 232 231 229 227 221 217 217 216 220 223 222 221 218 217 218 219 218 217 216 214 214 217 222 223 221 224 225 223 224 223 220 217 215 213 213 215 218 220 222 224 226 227 228 228 231 233 235 237 239 241 243 244 246 248 250 251 253 255 257 259 259 261
221 221 221 219 219 221 222 221 221 221 221 221 219 218 219 222 221 217 217 217 214 216 222 226 230 231 231 229 225 221 218 217 219 222 223 221 219 218 220 220 219 218 217 215 214 215 220 224 225 226 227 227 228 227 224 221 219 218 216 217 218 219 221 223 226 228 229 230 232 235 237 238 240 241 243 244 247 248 250 251 253 255 257 258 260 261
219 219 220 220 220 220 220 219 220 220 221 221 220 217 217 219 220 218 217 217 215 214 219 224 227 229 230 231 230 226 221 218 219 222 225 224 220 220 222 221 219 218 218 216 215 215 218 223 228 229 229 230 230 230 229 226 223 222 221 220 220 221 222 223 225 227 229 231 232 235 238 239 241 243 244 245 247 248 250 251 252 253 255 256 258 259
217 218 219 219 220 220 220 219 219 218 219 220 220 218 216 218 220 221 219 218 216 215 217 221 224 226 228 231 233 230 223 219 219 220 224 225 223 222 223 221 219 218 218 217 216 216 218 221 225 227 228 229 230 230 230 228 226 225 224 224 224 224 224 225 227 228 230 232 233 235 238 241 243 245 246 246 247 249 250 251 252 253 254 256 257 260
215 217 218 218 218 219 220 220 219 218 218 219 221 220 218 217 219 221 219 217 217 217 217 220 222 224 225 228 231 231 225 222 221 219 220 224 224 224 225 223 220 218 217 218 217 218 219 220 222 225 227 228 229 229 229 229 228 227 226 226 226 226 227 228 230 231 232 234 235 236 239 241 244 245 246 247 248 250 251 252 253 254 257 259 261 263
214 215 217 218 218 217 219 219 219 219 218 218 219 219 218 216 216 218 219 217 217 217 218 220 220 221 224 226 229 233 232 228 225 221 221 223 224 226 227 225 223 220 218 218 218 219 221 221 221 224 226 226 227 227 228 229 229 228 227 227 226 227 228 229 231 233 234 236 237 239 240 241 243 245 247 249 250 251 251 252 254 256 259 261 263 265
213 214 216 217 217 217 218 219 219 218 216 216 217 217 217 216 215 216 218 217 216 216 217 219 219 220 223 225 228 232 235 234 230 226 224 223 223 224 225 225 223 221 219 219 219 220 222 222 222 223 226 227 227 227 228 229 230 230 229 229 229 229 230 231 233 235 237 238 240 242 243 244 246 247 250 252 252 252 253 253 255 257 259 262 264 266
212 213 214 215 216 216 217 218 218 217 214 215 217 217 217 217 215 215 217 218 217 217 217 218 220 221 223 227 229 230 234 235 233 229 225 222 221 222 222 223 224 222 221 221 220 221 223 224 224 225 226 227 228 228 229 230 231 231 231 232 232 232 232 234 236 238 240 241 243 244 246 247 248 250 251 253 254 255 256 257 258 259 262 265 267 269
211 211 212 213 215 216 217 219 218 216 215 215 216 217 218 218 216 215 216 217 219 219 218 219 221 221 221 224 227 226 228 232 232 229 226 223 222 223 223 224 226 225 224 224 223 223 223 224 225 226 226 227 228 229 230 230 231 232 233 234 234 234 234 235 237 239 241 243 245 246 247 249 250 251 252 253 255 257 258 260 262 264 265 267 269 270
211 211 210 211 213 215 217 218 218 217 216 215 216 217 218 218 218 216 215 216 218 219 218 218 220 220 218 221 224 225 228 232 233 232 229 226 223 224 223 222 224 223 222 224 225 224 224 224 225 226 227 227 228 229 230 231 232 233 234 235 236 237 237 237 238 240 242 245 247 248 249 251 252 252 253 254 256 258 260 262 264 265 266 268 269 271
211 211 210 211 212 213 215 217 217 217 216 215 215 217 217 217 219 218 216 217 218 217 216 216 217 218 218 221 225 228 231 234 236 235 234 229 224 224 224 221 219 219 220 223 225 226 225 225 226 227 228 229 229 230 231 231 232 233 235 237 238 239 239 240 241 242 243 245 248 249 251 252 253 254 256 257 259 260 262 263 265 266 267 269 270 272
211 212 211 210 212 213 213 215 216 217 216 215 215 216 216 216 218 218 216 217 218 216 216 217 217 217 218 220 223 226 228 230 233 235 235 230 225 225 227 223 217 217 220 222 225 227 227 227 227 228 229 230 231 232 232 233 234 235 236 237 239 240 241 242 243 244 245 247 248 250 251 253 255 256 258 259 261 262 263 265 266 267 268 269 270 272
210 212 211 210 212 212 213 214 215 216 215 214 215 216 214 214 217 218 216 216 216 215 216 218 219 218 218 219 221 224 226 229 233 236 235 231 226 225 226 224 218 216 219 220 222 225 226 228 229 229 230 231 232 233 234 235 235 236 237 238 239 241 242 244 245 246 247 249 250 252 253 255 256 258 259 261 262 263 264 265 265 266 267 268 269 270
209 210 211 211 211 212 212 213 214 215 215 214 215 216 214 213 216 218 217 216 215 214 214 217 218 217 217 218 220 223 226 228 232 235 235 233 230 225 223 224 222 218 217 220 222 223 224 226 228 230 231 232 233 233 235 236 237 238 239 240 241 243 244 246 247 248 249 250 251 253 254 255 256 257 258 260 261 261 262 263 264 265 266 267 268 269
208 209 210 210 211 212 213 213 214 214 214 213 214 215 214 213 214 217 217 216 215 215 214 216 217 217 217 219 221 223 226 227 230 233 235 236 235 229 223 223 224 221 218 219 222 223 224 225 227 228 229 231 232 232 233 235 237 238 239 240 242 243 245 246 247 248 249 250 251 252 253 253 254 254 255 256 257 258 260 261 262 264 265 266 268 269
207 208 209 209 210 211 213 214 215 215 214 212 213 214 214 213 213 215 217 216 214 214 215 216 217 217 218 220 222 223 225 227 229 231 233 235 236 233 226 222 223 224 221 219 221 224 224 225 226 227 228 229 230 229 229 231 232 234 235 237 238 239 240 242 244 245 245 246 247 248 249 250 250 250 251 252 254 256 258 260 262 264 266 268 269 270
207 207 208 209 210 211 212 213 214 215 214 212 212 213 214 213 213 215 217 216 214 213 214 215 216 217 218 220 222 223 224 226 228 229 231 233 235 235 231 223 221 224 224 223 223 224 224 224 224 226 226 228 228 227 226 227 228 229 230 231 232 233 233 234 238 240 241 242 243 245 246 248 250 250 251 253 255 257 258 260 262 264 266 268 269 270
208 207 207 209 210 211 213 214 214 215 214 212 212 213 213 212 212 213 216 217 215 214 214 215 215 216 218 220 222 223 223 224 226 228 230 231 234 235 234 228 223 222 224 224 224 224 223 222 223 225 226 227 228 228 227 226 226 227 228 228 229 230 230 230 233 237 238 239 241 244 246 249 251 252 253 254 256 258 259 261 262 264 266 268 269 270
209 208 207 208 209 210 212 214 214 214 214 212 211 212 213 212 211 212 214 216 216 214 214 215 215 216 218 220 222 223 223 223 225 227 229 230 232 234 235 233 228 223 222 224 225 226 224 223 223 225 227 228 229 229 229 228 226 226 227 227 228 230 230 230 232 236 239 241 243 246 248 250 253 254 255 256 258 260 262 264 266 268 269 270 271 271
209 209 208 209 209 210 212 213 213 213 213 212 211 212 213 211 210 211 213 215 216 214 214 214 215 216 218 219 221 222 223 224 224 226 227 229 231 233 234 234 231 226 223 223 224 226 227 227 227 227 228 230 231 232 231 230 230 230 231 231 231 232 234 234 235 238 242 244 247 249 250 253 255 256 257 259 260 262 265 268 269 270 271 272 273 273
210 209 209 209 210 210 212 214 213 213 213 212 211 212 212 211 211 211 213 214 215 214 213 214 215 216 217 219 220 222 223 224 224 225 226 228 231 232 233 233 232 229 225 223 224 225 227 229 230 230 231 231 233 233 234 234 234 234 235 237 237 238 239 240 241 243 245 248 250 252 253 255 257 258 260 261 263 264 267 269 270 271 272 272 273 274
210 209 209 209 210 211 213 214 214 212 212 212 212 210 209 209 210 211 212 213 214 214 213 213 214 215 216 217 219 221 222 223 224 225 226 227 229 231 232 233 232 230 228 225 224 224 224 226 229 232 232 233 233 234 236 237 238 238 239 240 241 243 244 246 247 248 250 252 253 254 256 258 259 261 262 263 265 268 269 270 270 271 272 273 274 275
210 210 209 209 210 211 213 215 214 212 211 212 212 210 207 208 210 212 212 212 213 214 214 214 214 215 216 217 218 220 222 223 224 225 225 226 229 231 232 233 232 231 229 228 226 224 223 224 226 229 232 233 234 235 236 238 240 242 243 243 244 246 247 249 250 252 253 255 256 257 258 260 262 263 264 266 267 269 270 271 271 272 274 275 276 277
Height
10922 10926 10928 10926 10927 10928 10931 10933 10934 10939 10942 10944 10946 10948 10950 10951 10950 10951 10952 10954 10955 10955 10956 10958 10959 10960 10961 10962 10963 10964 10965 10966 10967 10968 10968 10967 10968 10968 10966 10966 10967 10967 10967 10967 10968 10969 10970 10971 10973 10974 10975 10976 10976 10977 10979 10980 10982 10985 10987 10989 10991 10992 10994 10996 10997 10999 11000 11001 11003 11004 11005 11005 11006 11006 11006 11007 11007 11008 11008 11009 11009 11009 11009 11009 11009 11009
10919 10921 10918 10918 10922 10924 10926 10928 10930 10935 10938 10939 10942 10944 10946 10947 10946 10947 10948 10949 10951 10951 10952 10954 10955 10957 10958 10959 10960 10961 10962 10963 10964 10966 10967 10966 10966 10965 10965 10965 10965 10965 10966 10967 10968 10969 10970 10971 10972 10974 10975 10976 10977 10977 10979 10981 10983 10985 10988 10990 10991 10993 10994 10996 10998 11000 11001 11002 11004 11005 11006 11006 11007 11008 11008 11008 11009 11009 11010 11010 11010 11011 11011 11011 11011 11011
10914 10911 10908 10913 10917 10919 10922 10924 10926 10929 10933 10934 10936 10939 10941 10942 10941 10942 10943 10944 10946 10948 10948 10950 10951 10952 10954 10955 10957 10959 10959 10961 10962 10963 10965 10965 10964 10963 10964 10964 10963 10963 10964 10966 10967 10968 10970 10971 10972 10973 10975 10976 10977 10977 10978 10981 10983 10985 10987 10989 10991 10993 10994 10996 10998 11000 11002 11003 11004 11006 11007 11007 11008 11009 11009 11010 11010 11011 11011 11011 11012 11012 11012 11012 11012 11012
10904 10899 10901 10909 10913 10916 10918 10919 10921 10924 10927 10930 10931 10934 10936 10936 10937 10936 10937 10939 10940 10942 10943 10945 10947 10948 10950 10952 10954 10956 10957 10958 10959 10961 10963 10964 10963 10962 10962 10962 10962 10963 10963 10964 10965 10967 10969 10970 10971 10973 10975 10976 10977 10977 10978 10980 10983 10985 10987 10989 10991 10993 10995 10997 10999 11000 11002 11003 11005 11006 11007 11008 11009 11010 11010 11011 11011 11011 11012 11012 11013 11013 11013 11013 11013 11013
10893 10891 10899 10906 10908 10911 10913 10914 10916 10918 10921 10923 10925 10927 10928 10930 10932 10930 10931 10934 10935 10937 10940 10941 10942 10944 10946 10948 10950 10952 10954 10954 10956 10959 10961 10962 10961 10961 10961 10961 10961 10962 10962 10963 10964 10966 10968 10969 10970 10972 10974 10976 10976 10977 10978 10980 10983 10985 10987 10989 10991 10993 10995 10997 10999 11000 11002 11003 11005 11006 11008 11009 11009 11010 11011 11011 11012 11012 11012 11013 11013 11014 11014 11014 11014 11014
10884 10887 10896 10900 10902 10905 10907 10908 10910 10911 10914 10916 10919 10921 10921 10924 10926 10925 10926 10928 10930 10933 10936 10937 10938 10940 10942 10944 10946 10949 10951 10951 10954 10957 10958 10959 10960 10959 10959 10960 10960 10960 10961 10962 10963 10965 10966 10968 10969 10970 10973 10975 10976 10977 10977 10979 10982 10985 10987 10989 10991 10993 10995 10996 10998 11000 11002 11003 11005 11006 11008 11009 11009 11010 11011 11012 11012 11012 11013 11013 11014 11014 11014 11014 11014 11015
10879 10883 10890 10892 10895 10898 10900 10903 10904 10905 10908 10911 10913 10912 10914 10919 10921 10921 10921 10922 10926 10929 10931 10933 10934 10935 10938 10941 10943 10945 10947 10948 10951 10954 10955 10956 10958 10958 10958 10958 10958 10959 10960 10961 10962 10963 10964 10966 10967 10969 10971 10975 10976 10977 10977 10978 10980 10983 10986 10988 10991 10993 10994 10996 10998 11000 11001 11003 11005 11006 11007 11008 11009 11010 11011 11012 11012 11013 11013 11014 11014 11014 11015 11015 11015 11015
10873 10875 10882 10884 10887 10891 10895 10897 10896 10898 10902 10905 10904 10905 10909 10913 10915 10917 10917 10917 10922 10924 10925 10928 10929 10932 10936 10938 10938 10941 10943 10945 10948 10951 10952 10953 10955 10955 10956 10957 10957 10957 10958 10959 10960 10961 10963 10964 10966 10967 10968 10972 10976 10976 10976 10977 10979 10982 10984 10987 10990 10992 10994 10996 10997 10999 11001 11003 11004 11006 11007 11008 11009 11009 11010 11011 11012 11013 11013 11014 11014 11015 11015 11015 11015 11015
10861 10865 10874 10876 10879 10885 10888 10888 10888 10892 10897 10897 10897 10900 10905 10908 10910 10912 10912 10913 10916 10918 10921 10924 10927 10930 10932 10932 10933 10936 10939 10942 10945 10947 10948 10950 10952 10953 10954 10955 10955 10956 10956 10957 10959 10960 10961 10963 10965 10966 10966 10969 10973 10975 10975 10975 10977 10980 10983 10986 10989 10992 10994 10995 10997 10998 11000 11002 11003 11005 11006 11007 11008 11009 11010 11011 11011 11012 11013 11014 11014 11014 11015 11015 11015 11015
10854 10860 10866 10869 10874 10880 10881 10881 10884 10889 10891 10890 10892 10897 10900 10903 10905 10906 10907 10909 10910 10913 10917 10920 10923 10925 10924 10925 10928 10932 10935 10938 10940 10942 10944 10947 10949 10951 10951 10952 10953 10954 10955 10955 10957 10958 10959 10961 10963 10964 10965 10966 10969 10973 10975 10974 10976 10978 10981 10984 10988 10991 10993 10994 10996 10997 10999 11000 11002 11004 11005 11007 11008 11009 11010 11010 11011 11012 11012 11013 11014 11014 11014 11014 11015 11015
10848 10852 10858 10865 10871 10873 10874 10876 10881 10885 10884 10884 10889 10893 10895 10898 10899 10900 10903 10903 10905 10911 10913 10913 10915 10917 10919 10921 10924 10927 10929 10931 10934 10937 10941 10944 10946 10948 10949 10949 10950 10951 10953 10953 10954 10955 10957 10960 10961 10963 10964 10964 10966 10970 10973 10973 10973 10976 10979 10982 10986 10989 10992 10993 10995 10996 10998 11000 11001 11003 11005 11006 11008 11009 11009 11010 11011 11011 11012 11012 11013 11013 11014 11014 11014 11014
10840 10846 10855 10862 10865 10865 10867 10873 10877 10878 10877 10880 10885 10887 10888 10892 10893 10895 10897 10898 10903 10906 10904 10903 10905 10910 10916 10916 10915 10919 10923 10925 10930 10935 10938 10941 10943 10946 10947 10948 10949 10949 10950 10951 10952 10953 10955 10957 10960 10962 10963 10963 10964 10967 10971 10971 10972 10974 10977 10981 10984 10987 10990 10992 10994 10996 10997 10999 11001 11002 11004 11006 11007 11008 11009 11010 11010 11011 11012 11012 11012 11013 11013 11013 11014 11014
10833 10842 10849 10852 10855 10858 10862 10868 10871 10871 10872 10875 10879 10880 10882 10886 10887 10889 10891 10894 10898 10895 10893 10893 10895 10904 10910 10905 10905 10914 10917 10921 10927 10931 10934 10938 10940 10943 10945 10947 10948 10948 10948 10949 10950 10952 10953 10955 10958 10960 10962 10962 10963 10966 10969 10970 10971 10972 10976 10979 10983 10986 10988 10991 10993 10995 10997 10999 11000 11002 11003 11005 11006 11007 11008 11009 11010 11011 11011 11012 11012 11012 11013 11013 11013 11014
10823 10828 10835 10843 10849 10851 10856 10863 10864 10864 10865 10867 10871 10873 10876 10879 10881 10884 10886 10888 10888 10886 10885 10886 10890 10901 10903 10898 10903 10912 10914 10918 10923 10927 10931 10935 10937 10940 10942 10945 10948 10948 10947 10948 10949 10950 10951 10952 10955 10958 10959 10960 10962 10965 10967 10968 10970 10971 10975 10978 10982 10985 10988 10990 10993 10995 10997 10998 11000 11001 11002 11004 11005 11006 11007 11008 11009 11010 11011 11011 11011 11012 11012 11013 11013 11013
10814 10819 10831 10840 10842 10843 10850 10856 10855 10854 10856 10861 10865 10866 10870 10874 10876 10878 10880 10881 10881 10880 10880 10883 10890 10898 10897 10897 10903 10909 10912 10916 10920 10923 10928 10932 10935 10938 10940 10942 10945 10947 10947 10947 10947 10948 10949 10950 10951 10954 10956 10958 10960 10963 10964 10966 10968 10970 10973 10977 10981 10984 10987 10990 10992 10994 10996 10997 10999 11000 11001 11002 11004 11005 11006 11007 11008 11009 11010 11010 11010 11011 11011 11012 11013 11013
10808 10817 10827 10828 10829 10833 10839 10844 10844 10845 10851 10855 10858 10862 10867 10868 10869 10872 10874 10874 10875 10875 10878 10883 10888 10890 10891 10896 10900 10905 10911 10913 10915 10919 10924 10929 10932 10935 10937 10938 10941 10944 10945 10946 10946 10946 10947 10948 10949 10950 10952 10955 10958 10960 10962 10963 10965 10968 10971 10975 10979 10982 10985 10988 10990 10992 10994 10995 10997 10998 11000 11001 11002 11003 11005 11006 11007 11008 11008 11009 11009 11010 11010 11011 11012 11012
10800 10811 10814 10814 10820 10827 10831 10834 10836 10840 10844 10847 10852 10858 10861 10859 10862 10867 10869 10869 10871 10873 10877 10880 10881 10882 10888 10894 10896 10901 10907 10909 10911 10915 10920 10926 10929 10932 10934 10934 10936 10939 10941 10943 10944 10945 10946 10947 10948 10948 10949 10952 10954 10957 10959 10961 10963 10966 10969 10973 10977 10980 10983 10986 10988 10990 10991 10993 10994 10996 10998 10999 11000 11002 11003 11004 11005 11006 11007 11008 11008 11009 11009 11010 11010 11011
10790 10799 10800 10804 10814 10820 10822 10825 10828 10834 10838 10842 10849 10852 10851 10852 10859 10865 10865 10866 10869 10871 10873 10875 10875 10878 10884 10889 10891 10895 10901 10905 10908 10910 10916 10923 10925 10927 10929 10929 10930 10934 10936 10939 10941 10942 10944 10946 10947 10948 10948 10950 10952 10955 10957 10959 10962 10965 10968 10971 10974 10977 10980 10983 10985 10988 10989 10991 10993 10994 10996 10997 10999 11000 11002 11002 11003 11004 11005 11007 11007 11008 11008 11008 11009 11009
10779 10785 10787 10795 10804 10808 10811 10813 10819 10831 10836 10840 10845 10843 10845 10852 10859 10862 10862 10863 10865 10866 10867 10869 10871 10875 10879 10882 10885 10890 10896 10901 10903 10906 10912 10917 10918 10920 10923 10924 10926 10929 10933 10935 10937 10939 10940 10942 10944 10945 10945 10947 10951 10954 10955 10958 10961 10964 10966 10969 10972 10975 10978 10981 10984 10986 10987 10989 10991 10992 10993 10995 10997 10998 10999 11000 11001 11002 11004 11005 11005 11006 11006 11007 11007 11008
10769 10774 10779 10789 10794 10796 10800 10806 10818 10831 10834 10836 10839 10838 10844 10852 10854 10857 10858 10858 10859 10860 10863 10865 10867 10870 10873 10875 10879 10885 10891 10895 10899 10902 10906 10910 10912 10914 10918 10920 10922 10926 10930 10932 10933 10935 10936 10938 10941 10941 10941 10944 10949 10952 10953 10956 10959 10962 10964 10967 10969 10972 10975 10979 10981 10983 10985 10986 10987 10989 10991 10993 10994 10996 10997 10998 10999 11000 11001 11002 11003 11003 11004 11005 11005 11006
10760 10766 10774 10780 10782 10785 10796 10809 10819 10827 10828 10830 10834 10836 10841 10846 10848 10852 10855 10854 10855 10857 10859 10861 10861 10863 10867 10871 10877 10882 10888 10891 10895 10898 10901 10905 10907 10910 10914 10917 10919 10922 10926 10929 10930 10931 10933 10935 10938 10939 10940 10942 10947 10950 10951 10953 10956 10960 10963 10965 10967 10970 10973 10975 10977 10980 10982 10983 10985 10987 10989 10991 10992 10993 10994 10995 10996 10997 10998 10999 11000 11001 11002 11002 11003 11003
10753 10761 10767 10769 10772 10783 10800 10809 10811 10816 10820 10823 10825 10829 10834 10837 10840 10846 10849 10849 10850 10852 10853 10854 10855 10858 10865 10871 10874 10878 10882 10885 10889 10893 10895 10898 10901 10905 10910 10913 10916 10918 10922 10925 10927 10928 10931 10933 10935 10937 10938 10938 10941 10946 10948 10950 10954 10958 10961 10964 10966 10968 10970 10972 10974 10976 10978 10980 10982 10984 10986 10988 10989 10990 10991 10991 10992 10994 10995 10996 10997 10998 10998 10999 11000 11001
10744 10753 10758 10759 10767 10783 10795 10796 10798 10804 10809 10811 10815 10820 10825 10829 10833 10840 10843 10843 10843 10845 10846 10848 10849 10855 10863 10866 10866 10871 10876 10879 10883 10886 10888 10891 10895 10900 10904 10908 10912 10914 10917 10921 10924 10926 10929 10931 10932 10934 10936 10936 10938 10942 10945 10948 10951 10956 10959 10962 10964 10966 10968 10970 10972 10974 10976 10977 10979 10982 10983 10985 10986 10987 10988 10989 10990 10992 10993 10994 10994 10995 10995 10996 10997 10998
10723 10733 10745 10752 10763 10775 10781 10783 10787 10793 10799 10805 10810 10816 10821 10825 10829 10833 10835 10835 10837 10839 10840 10842 10845 10853 10860 10859 10860 10868 10873 10875 10878 10880 10882 10885 10889 10894 10898 10902 10907 10909 10913 10918 10921 10923 10925 10927 10929 10931 10933 10934 10936 10939 10942 10945 10949 10953 10956 10959 10961 10963 10965 10968 10969 10971 10973 10975 10977 10979 10980 10982 10983 10985 10986 10987 10989 10990 10991 10991 10992 10992 10993 10994 10995 10996
10710 10724 10740 10748 10754 10762 10769 10775 10780 10786 10795 10804 10808 10812 10818 10821 10822 10827 10830 10831 10833 10834 10836 10839 10841 10850 10856 10854 10859 10867 10868 10871 10874 10874 10877 10880 10883 10889 10894 10899 10904 10907 10911 10915 10917 10919 10921 10923 10926 10928 10930 10932 10934 10936 10939 10942 10945 10948 10951 10954 10956 10959 10962 10964 10966 10968 10970 10972 10974 10975 10977 10979 10981 10982 10983 10985 10987 10988 10988 10989 10989 10990 10991 10992 10992 10993
10711 10724 10736 10743 10746 10754 10766 10774 10780 10786 10794 10801 10804 10809 10813 10815 10818 10823 10826 10829 10831 10831 10834 10836 10837 10848 10853 10852 10857 10863 10864 10867 10868 10867 10871 10875 10880 10886 10891 10897 10901 10902 10905 10909 10911 10913 10916 10920 10922 10925 10927 10929 10930 10932 10934 10937 10940 10943 10946 10949 10952 10955 10958 10960 10962 10964 10966 10969 10970 10972 10974 10976 10977 10979 10981 10983 10985 10985 10986 10986 10987 10988 10989 10989 10990 10990
10706 10716 10728 10738 10741 10746 10758 10767 10771 10774 10781 10791 10798 10802 10806 10809 10813 10817 10821 10826 10827 10828 10831 10831 10833 10844 10849 10848 10855 10860 10859 10862 10862 10863 10867 10871 10875 10882 10887 10890 10892 10893 10898 10904 10908 10911 10913 10916 10919 10922 10924 10925 10926 10928 10929 10931 10934 10937 10941 10944 10947 10951 10954 10956 10959 10961 10963 10966 10967 10969 10971 10972 10975 10977 10979 10981 10982 10982 10983 10984 10985 10986 10986 10986 10987 10987
10695 10704 10719 10731 10733 10735 10746 10755 10758 10762 10772 10782 10789 10793 10798 10802 10807 10812 10818 10821 10822 10824 10826 10825 10828 10838 10843 10845 10852 10854 10854 10857 10859 10859 10863 10866 10872 10878 10881 10882 10884 10889 10895 10901 10906 10908 10908 10910 10914 10917 10919 10921 10922 10923 10925 10927 10929 10931 10935 10939 10943 10947 10950 10953 10956 10958 10960 10963 10964 10965 10967 10970 10972 10974 10976 10977 10978 10979 10980 10981 10982 10983 10983 10983 10984 10984
10681 10693 10710 10721 10722 10726 10737 10747 10752 10758 10768 10775 10781 10787 10791 10794 10801 10808 10812 10814 10818 10820 10820 10819 10824 10831 10836 10840 10845 10847 10849 10853 10854 10856 10860 10865 10869 10873 10873 10874 10879 10886 10892 10897 10902 10904 10903 10905 10909 10913 10915 10917 10919 10920 10923 10925 10926 10928 10931 10934 10939 10943 10946 10949 10952 10954 10957 10959 10960 10961 10964 10967 10969 10970 10972 10974 10974 10975 10977 10978 10979 10979 10979 10979 10980 10980
10677 10693 10705 10710 10711 10715 10726 10737 10744 10751 10760 10767 10775 10782 10785 10789 10796 10801 10803 10806 10812 10815 10813 10815 10820 10825 10830 10834 10837 10841 10845 10848 10851 10855 10858 10861 10862 10864 10866 10870 10877 10883 10887 10892 10897 10900 10901 10902 10905 10909 10912 10914 10916 10918 10920 10922 10924 10926 10929 10932 10935 10938 10942 10945 10947 10950 10952 10954 10956 10958 10960 10963 10964 10966 10968 10969 10970 10971 10972 10974 10974 10974 10975 10975 10976 10977
10678 10690 10694 10698 10701 10706 10718 10730 10737 10745 10755 10760 10766 10773 10778 10783 10789 10793 10796 10800 10805 10809 10809 10810 10814 10819 10823 10826 10829 10835 10842 10846 10851 10854 10854 10855 10858 10860 10863 10867 10872 10877 10882 10888 10893 10897 10900 10901 10903 10905 10908 10910 10913 10915 10917 10920 10922 10924 10927 10929 10932 10935 10938 10941 10943 10945 10947 10949 10952 10955 10956 10958 10960 10962 10964 10965 10966 10967 10968 10969 10970 10969 10970 10971 10972 10973
10673 10676 10679 10686 10693 10703 10715 10724 10731 10740 10746 10749 10755 10766 10775 10781 10784 10787 10791 10795 10800 10803 10803 10804 10809 10814 10818 10821 10824 10830 10838 10844 10847 10849 10849 10850 10854 10856 10857 10861 10866 10872 10877 10883 10887 10891 10894 10895 10896 10900 10903 10906 10909 10911 10914 10917 10919 10921 10923 10926 10929 10933 10935 10937 10938 10941 10943 10945 10949 10951 10952 10954 10956 10957 10959 10961 10962 10963 10964 10965 10965 10965 10966 10967 10968 10969
10656 10660 10668 10676 10688 10702 10709 10716 10725 10730 10735 10744 10756 10767 10773 10776 10778 10780 10784 10789 10793 10796 10797 10800 10806 10810 10813 10815 10817 10823 10832 10837 10838 10842 10844 10846 10850 10852 10854 10858 10863 10867 10872 10876 10880 10883 10885 10888 10893 10897 10900 10902 10904 10907 10910 10912 10914 10917 10920 10923 10927 10929 10931 10933 10935 10938 10940 10942 10945 10947 10948 10950 10951 10953 10954 10956 10958 10959 10960 10960 10961 10961 10963 10964 10965 10966
10643 10654 10663 10673 10686 10695 10699 10708 10715 10718 10730 10747 10754 10757 10761 10766 10769 10772 10776 10782 10786 10789 10793 10796 10800 10803 10804 10809 10814 10819 10825 10829 10833 10838 10842 10845 10848 10850 10851 10855 10858 10862 10868 10872 10875 10877 10879 10885 10890 10891 10893 10895 10899 10902 10905 10907 10910 10913 10916 10919 10922 10925 10927 10930 10932 10934 10936 10939 10941 10942 10944 10946 10947 10948 10950 10952 10954 10955 10956 10957 10957 10958 10959 10960 10961 10961
10637 10648 10656 10667 10680 10687 10692 10698 10701 10711 10731 10742 10739 10741 10748 10753 10759 10763 10766 10772 10777 10781 10785 10787 10790 10795 10799 10806 10812 10815 10818 10823 10829 10835 10839 10842 10845 10846 10848 10851 10854 10858 10863 10866 10869 10873 10876 10880 10884 10885 10888 10892 10895 10899 10901 10903 10906 10909 10912 10915 10918 10921 10924 10926 10928 10930 10932 10935 10936 10938 10940 10942 10944 10945 10947 10948 10949 10950 10951 10952 10954 10955 10956 10956 10956 10957
10630 10638 10648 10661 10671 10677 10678 10681 10691 10710 10726 10727 10725 10733 10740 10743 10751 10757 10761 10767 10771 10773 10777 10780 10784 10793 10801 10805 10808 10811 10814 10818 10823 10828 10833 10837 10839 10840 10844 10847 10850 10854 10858 10862 10868 10871 10872 10876 10880 10883 10885 10888 10891 10894 10897 10899 10903 10906 10909 10912 10914 10917 10920 10922 10925 10926 10928 10930 10932 10934 10936 10938 10940 10942 10943 10944 10944 10945 10946 10947 10949 10951 10952 10952 10952 10952
10619 10628 10640 10651 10658 10662 10665 10673 10690 10704 10710 10713 10721 10728 10731 10737 10746 10752 10755 10760 10763 10766 10773 10780 10785 10793 10799 10799 10799 10803 10805 10808 10814 10821 10826 10830 10833 10838 10844 10848 10850 10853 10859 10863 10865 10865 10867 10871 10875 10877 10880 10883 10887 10890 10893 10896 10899 10902 10905 10908 10910 10913 10916 10918 10920 10921 10923 10925 10927 10930 10932 10934 10936 10937 10938 10939 10939 10940 10941 10942 10944 10946 10947 10947 10947 10947
10611 10619 10628 10637 10644 10651 10660 10670 10683 10691 10697 10708 10716 10718 10723 10733 10739 10742 10747 10752 10755 10762 10770 10776 10779 10784 10788 10788 10789 10793 10799 10805 10811 10816 10820 10825 10832 10839 10844 10845 10847 10852 10856 10856 10855 10857 10862 10866 10868 10871 10875 10878 10882 10885 10888 10892 10895 10898 10901 10903 10905 10908 10911 10913 10914 10916 10918 10920 10923 10925 10927 10929 10930 10931 10932 10933 10934 10935 10937 10938 10939 10941 10942 10942 10942 10942
10601 10607 10617 10627 10634 10643 10652 10661 10671 10680 10689 10700 10706 10708 10716 10725 10727 10733 10742 10746 10747 10753 10759 10763 10768 10774 10779 10783 10787 10795 10802 10805 10805 10808 10815 10824 10832 10837 10839 10840 10845 10848 10848 10848 10850 10854 10857 10860 10863 10867 10870 10873 10877 10880 10883 10887 10890 10894 10897 10898 10901 10904 10906 10907 10909 10911 10914 10916 10918 10920 10921 10923 10924 10926 10927 10928 10929 10931 10932 10933 10934 10935 10936 10937 10937 10937
10591 10597 10609 10620 10627 10635 10645 10653 10661 10669 10679 10690 10695 10697 10705 10713 10717 10725 10733 10733 10735 10744 10753 10757 10763 10768 10774 10781 10788 10794 10797 10795 10794 10803 10815 10824 10830 10833 10834 10837 10842 10843 10843 10846 10849 10850 10852 10856 10860 10863 10866 10869 10872 10875 10879 10883 10886 10889 10891 10894 10897 10899 10900 10903 10905 10907 10909 10911 10912 10914 10915 10917 10918 10920 10922 10923 10924 10925 10926 10927 10928 10929 10930 10931 10932 10932
10581 10590 10602 10613 10619 10627 10636 10644 10649 10655 10666 10677 10681 10682 10692 10705 10709 10712 10718 10722 10730 10744 10751 10753 10757 10766 10774 10781 10785 10786 10785 10786 10793 10804 10813 10819 10824 10826 10828 10832 10837 10839 10841 10844 10844 10845 10850 10853 10855 10858 10862 10865 10867 10871 10875 10879 10881 10884 10886 10889 10891 10893 10895 10898 10900 10902 10904 10905 10906 10908 10909 10911 10912 10914 10916 10917 10917 10919 10920 10921 10922 10923 10924 10925 10926 10927
10572 10582 10594 10604 10611 10618 10625 10631 10637 10643 10654 10664 10668 10672 10685 10697 10699 10701 10710 10719 10728 10738 10742 10745 10753 10764 10771 10774 10776 10778 10782 10787 10794 10801 10806 10810 10815 10819 10823 10829 10833 10835 10838 10840 10841 10844 10848 10849 10851 10855 10858 10860 10862 10867 10870 10873 10876 10879 10881 10884 10886 10888 10891 10893 10894 10896 10898 10899 10900 10902 10903 10905 10906 10908 10910 10910 10911 10912 10914 10915 10916 10917 10918 10919 10920 10921
10562 10572 10582 10593 10601 10608 10615 10620 10623 10629 10640 10652 10659 10666 10679 10688 10692 10699 10709 10716 10723 10732 10738 10745 10754 10761 10766 10769 10772 10776 10781 10785 10790 10795 10799 10803 10808 10814 10821 10826 10828 10831 10834 10837 10839 10842 10844 10846 10848 10851 10853 10855 10858 10862 10865 10867 10871 10873 10876 10878 10881 10883 10886 10887 10888 10890 10892 10893 10895 10896 10897 10898 10900 10902 10904 10904 10905 10906 10907 10908 10910 10911 10912 10914 10915 10915
10552 10562 10572 10582 10588 10594 10601 10607 10612 10619 10630 10641 10650 10659 10670 10680 10688 10697 10703 10709 10719 10730 10737 10743 10749 10757 10762 10765 10768 10772 10777 10782 10787 10792 10795 10797 10801 10808 10816 10821 10823 10826 10829 10833 10836 10838 10840 10843 10845 10847 10849 10851 10853 10857 10860 10863 10865 10868 10870 10873 10875 10877 10879 10881 10883 10884 10886 10887 10889 10890 10891 10893 10894 10896 10898 10898 10899 10900 10902 10903 10905 10906 10907 10909 10909 10910
10543 10553 10563 10572 10578 10583 10589 10595 10602 10611 10622 10634 10646 10655 10665 10676 10686 10694 10698 10704 10714 10724 10730 10736 10745 10753 10757 10759 10763 10768 10774 10779 10783 10786 10789 10791 10795 10802 10810 10815 10819 10822 10826 10830 10832 10833 10835 10838 10840 10842 10844 10846 10849 10852 10855 10857 10860 10863 10865 10867 10868 10870 10873 10875 10877 10878 10879 10881 10883 10885 10886 10887 10888 10890 10892 10893 10895 10896 10897 10899 10900 10901 10903 10903 10904 10905
10534 10543 10552 10561 10570 10580 10587 10592 10600 10608 10618 10632 10645 10652 10659 10670 10681 10688 10694 10700 10710 10718 10725 10732 10740 10746 10749 10753 10758 10763 10769 10773 10776 10779 10783 10787 10791 10797 10803 10809 10814 10818 10821 10824 10826 10827 10830 10834 10836 10837 10839 10842 10845 10847 10850 10852 10855 10857 10859 10861 10863 10865 10868 10870 10871 10871 10873 10876 10877 10879 10881 10882 10883 10885 10887 10889 10890 10891 10892 10894 10896 10897 10898 10898 10899 10899
10527 10535 10543 10552 10561 10570 10575 10581 10591 10600 10610 10626 10638 10644 10651 10663 10675 10684 10690 10695 10703 10713 10721 10728 10734 10739 10743 10748 10753 10757 10762 10767 10771 10774 10778 10782 10786 10791 10796 10802 10808 10812 10816 10819 10821 10822 10825 10829 10831 10833 10835 10838 10840 10842 10844 10847 10850 10852 10853 10856 10858 10860 10862 10864 10866 10866 10868 10870 10872 10874 10876 10877 10878 10880 10882 10883 10884 10885 10887 10889 10890 10891 10892 10893 10893 10893
10518 10529 10539 10548 10556 10561 10565 10571 10582 10591 10604 10620 10632 10638 10647 10660 10671 10679 10683 10688 10696 10706 10714 10720 10727 10732 10737 10742 10748 10752 10757 10761 10766 10769 10773 10777 10781 10785 10790 10795 10801 10806 10811 10814 10816 10818 10821 10824 10827 10829 10831 10833 10835 10837 10840 10842 10845 10847 10849 10851 10853 10855 10857 10859 10861 10862 10863 10866 10867 10869 10870 10871 10872 10874 10875 10876 10878 10880 10882 10883 10884 10885 10886 10886 10886 10886
10511 10523 10535 10543 10551 10558 10563 10570 10579 10590 10603 10617 10626 10632 10643 10656 10665 10670 10675 10682 10690 10698 10705 10712 10719 10725 10731 10738 10743 10747 10751 10755 10760 10764 10768 10772 10775 10779 10783 10788 10794 10800 10805 10808 10811 10813 10816 10819 10821 10824 10826 10828 10830 10833 10835 10837 10840 10841 10843 10845 10848 10850 10851 10853 10855 10856 10858 10861 10862 10863 10865 10866 10867 10868 10869 10870 10872 10875 10877 10877 10877 10879 10880 10879 10879 10880
10507 10518 10527 10535 10545 10553 10558 10563 10572 10583 10597 10608 10614 10620 10633 10646 10654 10659 10666 10675 10683 10689 10697 10705 10712 10719 10725 10732 10737 10741 10745 10749 10753 10758 10763 10766 10769 10772 10776 10781 10788 10794 10798 10801 10805 10808 10811 10814 10816 10818 10820 10822 10825 10828 10830 10832 10834 10835 10837 10840 10842 10844 10846 10847 10849 10851 10853 10854 10856 10857 10858 10859 10861 10861 10862 10864 10867 10869 10870 10870 10870 10871 10872 10872 10873 10873
10503 10511 10519 10529 10539 10547 10552 10557 10566 10580 10593 10601 10606 10616 10631 10643 10650 10655 10663 10671 10678 10684 10692 10699 10706 10712 10719 10725 10730 10734 10738 10742 10746 10751 10756 10760 10762 10765 10769 10775 10781 10786 10791 10794 10798 10801 10805 10808 10810 10812 10814 10816 10819 10822 10824 10826 10827 10829 10831 10834 10836 10838 10839 10841 10843 10846 10847 10847 10848 10850 10851 10853 10854 10854 10854 10858 10862 10863 10861 10861 10862 10864 10865 10865 10865 10865